ETD322 OMAA-RCTP

Flight info

Callsign ETD322
Flight time N/A
Altitude 37000
Route KANIP2U KANIP N318 LAKLU G216 ALPOR M504 TELEM A791 CEA B465 DAKID/N0490F390 B465 CTG A599 LINSO/K0902S1190 A599 GULOT W146 XSJ W148 LXI A599 POU B330 TAMOT/N0489F390 B330 BIGEX A1 ELATO G581 DADON M750 EXTRA/N0530F290 M750 TONGA TONGA1A
Aircraft A35K/H-SDE2E3GHIJ3J4J5LM1ORWXY/LB1D1

Departure

Time 2026-04-29 07:42
Airport Zayed International Airport (OMAA)

Arrival

Time N/A
Airport Taiwan Taoyuan International Airport (RCTP)
Time Latitude Longitude Altitude Speed Heading
2026-04-29 07:27 24.42720 54.65026 55 ft 0 kts 122°
2026-04-29 07:32 24.42725 54.65017 55 ft 3 kts 122°
2026-04-29 07:32 24.42735 54.65000 55 ft 3 kts 122°
2026-04-29 07:32 24.42745 54.64981 55 ft 3 kts 96°
2026-04-29 07:33 24.42744 54.64960 55 ft 3 kts 76°
2026-04-29 07:33 24.42738 54.64940 55 ft 3 kts 52°
2026-04-29 07:33 24.42733 54.64933 55 ft 0 kts 41°
2026-04-29 07:35 24.42732 54.64933 55 ft 0 kts 41°
2026-04-29 07:35 24.42733 54.64933 55 ft 0 kts 40°
2026-04-29 07:35 24.42734 54.64934 55 ft 1 kts 39°
2026-04-29 07:35 24.42735 54.64934 55 ft 0 kts 37°
2026-04-29 07:36 24.42748 54.64945 55 ft 6 kts 37°
2026-04-29 07:36 24.42802 54.64991 55 ft 12 kts 37°
2026-04-29 07:36 24.42871 54.65048 58 ft 13 kts 37°
2026-04-29 07:36 24.42942 54.65113 56 ft 14 kts 51°
2026-04-29 07:37 24.42951 54.65209 55 ft 13 kts 115°
2026-04-29 07:37 24.42894 54.65295 56 ft 14 kts 127°
2026-04-29 07:37 24.42831 54.65384 56 ft 16 kts 128°
2026-04-29 07:37 24.42761 54.65482 56 ft 17 kts 128°
2026-04-29 07:38 24.42688 54.65587 55 ft 18 kts 128°
2026-04-29 07:38 24.42608 54.65699 56 ft 19 kts 128°
2026-04-29 07:38 24.42524 54.65817 54 ft 20 kts 128°
2026-04-29 07:38 24.42437 54.65941 55 ft 21 kts 128°
2026-04-29 07:39 24.42355 54.66056 55 ft 17 kts 128°
2026-04-29 07:39 24.42281 54.66161 53 ft 18 kts 128°
2026-04-29 07:39 24.42201 54.66273 56 ft 19 kts 128°
2026-04-29 07:39 24.42116 54.66393 55 ft 20 kts 128°
2026-04-29 07:40 24.42041 54.66507 53 ft 16 kts 111°
2026-04-29 07:40 24.42073 54.66621 51 ft 17 kts 43°
2026-04-29 07:40 24.42171 54.66671 51 ft 15 kts 349°
2026-04-29 07:40 24.42246 54.66602 55 ft 14 kts 308°
2026-04-29 07:41 24.42326 54.66491 52 ft 33 kts 308°
2026-04-29 07:41 24.42604 54.66099 56 ft 95 kts 307°
2026-04-29 07:41 24.43129 54.65362 57 ft 147 kts 308°
2026-04-29 07:41 24.43840 54.64368 205 ft 181 kts 309°
2026-04-29 07:42 24.44583 54.63252 773 ft 180 kts 309°
2026-04-29 07:42 24.45337 54.62151 1350 ft 184 kts 311°
2026-04-29 07:42 24.46171 54.61018 1601 ft 199 kts 312°
2026-04-29 07:42 24.47094 54.59781 1734 ft 220 kts 312°
2026-04-29 07:43 24.48085 54.58418 1969 ft 236 kts 310°
2026-04-29 07:43 24.49111 54.56966 2411 ft 242 kts 310°
2026-04-29 07:43 24.50149 54.55491 2928 ft 245 kts 310°
2026-04-29 07:43 24.51265 54.54046 3356 ft 254 kts 318°
2026-04-29 07:44 24.52769 54.52990 3725 ft 261 kts 341°
2026-04-29 07:44 24.54534 54.52789 4277 ft 261 kts
2026-04-29 07:44 24.56190 54.53613 4687 ft 270 kts 40°
2026-04-29 07:44 24.57212 54.55361 5104 ft 279 kts 73°
2026-04-29 07:45 24.57246 54.57502 5567 ft 286 kts 105°
2026-04-29 07:45 24.56400 54.59473 6089 ft 286 kts 120°
2026-04-29 07:45 24.55452 54.61403 6647 ft 287 kts 119°
2026-04-29 07:45 24.54534 54.63365 7146 ft 291 kts 118°
2026-04-29 07:46 24.53628 54.65341 7621 ft 295 kts 118°
2026-04-29 07:46 24.52704 54.67363 8163 ft 297 kts 118°
2026-04-29 07:46 24.51769 54.69395 8706 ft 299 kts 118°
2026-04-29 07:46 24.50823 54.71436 9250 ft 301 kts 118°
2026-04-29 07:47 24.49861 54.73500 9764 ft 304 kts 118°
2026-04-29 07:47 24.48888 54.75578 10211 ft 310 kts 118°
2026-04-29 07:47 24.47878 54.77723 10425 ft 323 kts 118°
2026-04-29 07:47 24.46824 54.79961 10633 ft 337 kts 118°
2026-04-29 07:48 24.45723 54.82297 10834 ft 350 kts 118°
2026-04-29 07:48 24.44595 54.84692 11033 ft 362 kts 118°
2026-04-29 07:48 24.43421 54.87185 11234 ft 374 kts 118°
2026-04-29 07:48 24.42206 54.89765 11437 ft 384 kts 118°
2026-04-29 07:49 24.40962 54.92402 11635 ft 394 kts 118°
2026-04-29 07:49 24.39688 54.95106 11878 ft 401 kts 118°
2026-04-29 07:49 24.38400 54.97838 12237 ft 405 kts 118°
2026-04-29 07:49 24.37099 55.00595 12608 ft 408 kts 118°
2026-04-29 07:50 24.35790 55.03369 12984 ft 411 kts 118°
2026-04-29 07:50 24.34469 55.06164 13364 ft 413 kts 118°
2026-04-29 07:50 24.33160 55.08933 13743 ft 415 kts 118°
2026-04-29 07:50 24.31825 55.11754 14108 ft 417 kts 118°
2026-04-29 07:51 24.30486 55.14580 14434 ft 419 kts 118°
2026-04-29 07:51 24.29135 55.17431 14752 ft 422 kts 119°
2026-04-29 07:51 24.27778 55.20292 15073 ft 425 kts 119°
2026-04-29 07:51 24.26411 55.23173 15398 ft 428 kts 119°
2026-04-29 07:52 24.25034 55.26073 15721 ft 430 kts 119°
2026-04-29 07:52 24.23642 55.29002 16021 ft 434 kts 120°
2026-04-29 07:52 24.22244 55.31944 16367 ft 436 kts 120°
2026-04-29 07:52 24.20839 55.34897 16674 ft 439 kts 120°
2026-04-29 07:53 24.19427 55.37865 17077 ft 440 kts 120°
2026-04-29 07:53 24.18011 55.40839 17413 ft 442 kts 120°
2026-04-29 07:53 24.16584 55.43836 17708 ft 445 kts 120°
2026-04-29 07:53 24.15144 55.46856 18025 ft 448 kts 120°
2026-04-29 07:54 24.13693 55.49896 18316 ft 450 kts 121°
2026-04-29 07:54 24.12256 55.52907 18590 ft 452 kts 121°
2026-04-29 07:54 24.10792 55.55971 18789 ft 456 kts 121°
2026-04-29 07:54 24.09313 55.59065 19031 ft 459 kts 121°
2026-04-29 07:55 24.07831 55.62164 19293 ft 460 kts 121°
2026-04-29 07:55 24.06344 55.65274 19556 ft 462 kts 121°
2026-04-29 07:55 24.04850 55.68392 19808 ft 464 kts 121°
2026-04-29 07:55 24.03349 55.71525 20056 ft 466 kts 121°
2026-04-29 07:56 24.01839 55.74674 20300 ft 468 kts 121°
2026-04-29 07:56 24.00320 55.77837 20530 ft 470 kts 121°
2026-04-29 07:56 23.98793 55.81018 20791 ft 473 kts 121°
2026-04-29 07:56 23.97277 55.84171 21052 ft 475 kts 121°
2026-04-29 07:57 23.95731 55.87385 21311 ft 477 kts 121°
2026-04-29 07:57 23.94183 55.90603 21591 ft 479 kts 121°
2026-04-29 07:57 23.92621 55.93848 21841 ft 481 kts 122°
2026-04-29 07:57 23.91059 55.97090 22101 ft 483 kts 122°
2026-04-29 07:58 23.89500 56.00323 22350 ft 485 kts 122°
2026-04-29 07:58 23.87919 56.03601 22598 ft 488 kts 122°
2026-04-29 07:58 23.86334 56.06884 22871 ft 489 kts 122°
2026-04-29 07:58 23.84763 56.10139 23273 ft 488 kts 122°
2026-04-29 07:59 23.83175 56.13426 23511 ft 490 kts 122°
2026-04-29 07:59 23.81577 56.16728 23667 ft 493 kts 122°
2026-04-29 07:59 23.79966 56.20057 23846 ft 495 kts 122°
2026-04-29 07:59 23.78347 56.23399 24030 ft 497 kts 122°
2026-04-29 08:00 23.76727 56.26743 24216 ft 499 kts 122°
2026-04-29 08:00 23.75096 56.30104 24431 ft 501 kts 122°
2026-04-29 08:00 23.73463 56.33467 24602 ft 503 kts 122°
2026-04-29 08:00 23.71812 56.36861 24763 ft 505 kts 121°
2026-04-29 08:01 23.70183 56.40212 24933 ft 507 kts 121°
2026-04-29 08:01 23.68525 56.43621 25110 ft 509 kts 121°
2026-04-29 08:01 23.66865 56.47032 25356 ft 509 kts 121°
2026-04-29 08:01 23.65202 56.50448 25519 ft 511 kts 121°
2026-04-29 08:02 23.63531 56.53876 25687 ft 513 kts 121°
2026-04-29 08:02 23.61848 56.57326 25867 ft 515 kts 121°
2026-04-29 08:02 23.60159 56.60786 26007 ft 518 kts 121°
2026-04-29 08:02 23.58460 56.64264 26160 ft 519 kts 121°
2026-04-29 08:03 23.56757 56.67747 26347 ft 521 kts 121°
2026-04-29 08:03 23.55048 56.71240 26526 ft 523 kts 121°
2026-04-29 08:03 23.53334 56.74741 26672 ft 526 kts 121°
2026-04-29 08:03 23.51629 56.78222 26845 ft 527 kts 121°
2026-04-29 08:04 23.49897 56.81755 27052 ft 528 kts 121°
2026-04-29 08:04 23.48153 56.85310 27255 ft 529 kts 121°
2026-04-29 08:04 23.46413 56.88855 27407 ft 531 kts 120°
2026-04-29 08:04 23.44688 56.92366 27554 ft 533 kts 120°
2026-04-29 08:05 23.42935 56.95933 27722 ft 534 kts 120°
2026-04-29 08:05 23.41198 56.99536 27862 ft 537 kts 118°
2026-04-29 08:05 23.39794 57.03322 27996 ft 541 kts 109°
2026-04-29 08:05 23.38939 57.07321 28138 ft 545 kts 98°
2026-04-29 08:06 23.38731 57.11454 28268 ft 546 kts 88°
2026-04-29 08:06 23.39050 57.15574 28407 ft 547 kts 81°
2026-04-29 08:06 23.39681 57.19628 28528 ft 548 kts 78°
2026-04-29 08:06 23.40471 57.23697 28656 ft 549 kts 76°
2026-04-29 08:07 23.41312 57.27766 28772 ft 550 kts 76°
2026-04-29 08:07 23.42146 57.31838 28920 ft 551 kts 76°
2026-04-29 08:07 23.42955 57.35929 29028 ft 553 kts 77°
2026-04-29 08:07 23.43740 57.40047 29149 ft 554 kts 77°
2026-04-29 08:08 23.44489 57.44091 29337 ft 553 kts 77°
2026-04-29 08:08 23.45238 57.48205 29518 ft 553 kts 77°
2026-04-29 08:08 23.45980 57.52322 29677 ft 553 kts 77°
2026-04-29 08:08 23.46718 57.56430 29902 ft 552 kts 77°
2026-04-29 08:09 23.47453 57.60530 30021 ft 553 kts 77°
2026-04-29 08:09 23.48191 57.64645 30192 ft 552 kts 77°
2026-04-29 08:09 23.48926 57.68743 30384 ft 551 kts 77°
2026-04-29 08:09 23.49661 57.72835 30564 ft 550 kts 77°
2026-04-29 08:10 23.50395 57.76927 30755 ft 550 kts 77°
2026-04-29 08:10 23.51128 57.81015 30948 ft 549 kts 77°
2026-04-29 08:10 23.51858 57.85094 31130 ft 548 kts 77°
2026-04-29 08:10 23.52585 57.89166 31305 ft 547 kts 77°
2026-04-29 08:11 23.53313 57.93245 31517 ft 547 kts 77°
2026-04-29 08:11 23.54037 57.97308 31710 ft 546 kts 77°
2026-04-29 08:11 23.54761 58.01379 31901 ft 545 kts 78°
2026-04-29 08:11 23.55472 58.05387 32095 ft 545 kts 78°
2026-04-29 08:12 23.56192 58.09446 32283 ft 544 kts 78°
2026-04-29 08:12 23.56908 58.13490 32468 ft 543 kts 78°
2026-04-29 08:12 23.57621 58.17528 32658 ft 542 kts 78°
2026-04-29 08:12 23.58336 58.21576 32857 ft 542 kts 78°
2026-04-29 08:13 23.59045 58.25602 33090 ft 540 kts 78°
2026-04-29 08:13 23.59747 58.29632 33289 ft 539 kts 78°
2026-04-29 08:13 23.60428 58.33652 33501 ft 539 kts 79°
2026-04-29 08:13 23.61089 58.37612 33688 ft 538 kts 79°
2026-04-29 08:14 23.61754 58.41623 33927 ft 535 kts 79°
2026-04-29 08:14 23.62416 58.45611 34215 ft 533 kts 79°
2026-04-29 08:14 23.63076 58.49586 34375 ft 533 kts 79°
2026-04-29 08:14 23.63739 58.53572 34495 ft 534 kts 79°
2026-04-29 08:15 23.64402 58.57555 34632 ft 534 kts 79°
2026-04-29 08:15 23.65066 58.61547 34796 ft 534 kts 79°
2026-04-29 08:15 23.65728 58.65533 34963 ft 533 kts 79°
2026-04-29 08:15 23.66381 58.69471 35129 ft 533 kts 79°
2026-04-29 08:16 23.67040 58.73447 35286 ft 532 kts 79°
2026-04-29 08:16 23.67700 58.77442 35452 ft 532 kts 79°
2026-04-29 08:16 23.68355 58.81412 35597 ft 532 kts 79°
2026-04-29 08:16 23.69013 58.85391 35764 ft 531 kts 79°
2026-04-29 08:17 23.69661 58.89318 35910 ft 531 kts 79°
2026-04-29 08:17 23.70317 58.93299 36061 ft 531 kts 79°
2026-04-29 08:17 23.70970 58.97270 36210 ft 530 kts 79°
2026-04-29 08:17 23.71401 58.99893 36310 ft 530 kts 79°
2026-04-29 08:18 23.72052 59.03858 36456 ft 530 kts 79°
2026-04-29 08:18 23.72910 59.09102 36643 ft 530 kts 79°
2026-04-29 08:18 23.73994 59.15734 36755 ft 533 kts 79°
2026-04-29 08:19 23.75297 59.23736 36759 ft 536 kts 79°
2026-04-29 08:19 23.76596 59.31744 36762 ft 535 kts 79°
2026-04-29 08:20 23.77889 59.39739 36762 ft 535 kts 79°
2026-04-29 08:20 23.79180 59.47746 36762 ft 536 kts 79°
2026-04-29 08:21 23.80466 59.55757 36758 ft 536 kts 79°
2026-04-29 08:21 23.81744 59.63776 36757 ft 536 kts 79°
2026-04-29 08:22 23.83018 59.71795 36754 ft 536 kts 79°
2026-04-29 08:22 23.84290 59.79827 36753 ft 537 kts 79°
2026-04-29 08:23 23.85564 59.87861 36754 ft 537 kts 79°
2026-04-29 08:23 23.86820 59.95839 36755 ft 537 kts 79°
2026-04-29 08:24 23.88082 60.03879 36754 ft 537 kts 79°
2026-04-29 08:24 23.89341 60.11921 36750 ft 537 kts 79°
2026-04-29 08:25 23.90596 60.19967 36745 ft 537 kts 79°
2026-04-29 08:25 23.91847 60.28015 36748 ft 537 kts 79°
2026-04-29 08:26 23.93092 60.36053 36744 ft 537 kts 79°
2026-04-29 08:26 23.94335 60.44102 36741 ft 537 kts 79°
2026-04-29 08:27 23.95571 60.52143 36740 ft 537 kts 79°
2026-04-29 08:27 23.96805 60.60189 36740 ft 537 kts 79°
2026-04-29 08:28 23.98034 60.68243 36740 ft 537 kts 79°
2026-04-29 08:28 23.99260 60.76300 36737 ft 537 kts 79°
2026-04-29 08:29 24.00481 60.84353 36735 ft 537 kts 79°
2026-04-29 08:29 24.01699 60.92418 36732 ft 537 kts 79°
2026-04-29 08:30 24.03518 61.04510 36739 ft 537 kts 79°
2026-04-29 08:31 24.04725 61.12576 36732 ft 537 kts 79°
2026-04-29 08:31 24.05929 61.20650 36729 ft 537 kts 79°
2026-04-29 08:32 24.07127 61.28718 36725 ft 537 kts 79°
2026-04-29 08:32 24.07898 61.36848 36730 ft 539 kts 89°
2026-04-29 08:33 24.07455 61.45039 36728 ft 541 kts 95°
2026-04-29 08:33 24.06751 61.53238 36730 ft 541 kts 95°
2026-04-29 08:34 24.06145 61.61433 36729 ft 541 kts 94°
2026-04-29 08:34 24.05626 61.69643 36727 ft 541 kts 93°
2026-04-29 08:35 24.05135 61.77794 36726 ft 540 kts 93°
2026-04-29 08:35 24.04637 61.85980 36732 ft 539 kts 93°
2026-04-29 08:36 24.04131 61.94157 36736 ft 538 kts 93°
2026-04-29 08:36 24.03619 62.02332 36735 ft 539 kts 93°
2026-04-29 08:37 24.03101 62.10517 36733 ft 539 kts 93°
2026-04-29 08:37 24.02579 62.18693 36740 ft 539 kts 93°
2026-04-29 08:38 24.02053 62.26875 36738 ft 539 kts 93°
2026-04-29 08:38 24.01522 62.35068 36735 ft 540 kts 93°
2026-04-29 08:39 24.00986 62.43258 36735 ft 540 kts 93°
2026-04-29 08:39 24.00446 62.51448 36735 ft 540 kts 93°
2026-04-29 08:40 23.99901 62.59647 36737 ft 541 kts 93°
2026-04-29 08:40 23.99352 62.67845 36737 ft 541 kts 93°
2026-04-29 08:41 23.98798 62.76045 36737 ft 541 kts 93°
2026-04-29 08:41 23.98240 62.84250 36732 ft 541 kts 93°
2026-04-29 08:42 23.97678 62.92439 36739 ft 539 kts 93°
2026-04-29 08:42 23.97113 63.00602 36738 ft 538 kts 93°
2026-04-29 08:43 23.96548 63.08713 36738 ft 538 kts 93°
2026-04-29 08:43 23.95975 63.16879 36739 ft 539 kts 93°
2026-04-29 08:44 23.95396 63.25053 36741 ft 540 kts 93°
2026-04-29 08:44 23.94813 63.33234 36739 ft 540 kts 93°
2026-04-29 08:45 23.94226 63.41416 36738 ft 540 kts 93°
2026-04-29 08:45 23.93633 63.49603 36740 ft 541 kts 93°
2026-04-29 08:46 23.93036 63.57799 36740 ft 541 kts 93°
2026-04-29 08:46 23.92433 63.66000 36740 ft 541 kts 93°
2026-04-29 08:47 23.91827 63.74201 36742 ft 541 kts 93°
2026-04-29 08:47 23.91216 63.82397 36739 ft 542 kts 93°
2026-04-29 08:48 23.90600 63.90604 36736 ft 542 kts 93°
2026-04-29 08:48 23.89980 63.98806 36742 ft 541 kts 93°
2026-04-29 08:49 23.89361 64.06934 36744 ft 540 kts 93°
2026-04-29 08:49 23.88735 64.15111 36740 ft 541 kts 93°
2026-04-29 08:50 23.88102 64.23304 36743 ft 541 kts 93°
2026-04-29 08:50 23.87466 64.31492 36743 ft 541 kts 93°
2026-04-29 08:51 23.86825 64.39680 36744 ft 541 kts 93°
2026-04-29 08:51 23.86179 64.47874 36743 ft 541 kts 93°
2026-04-29 08:52 23.85529 64.56072 36744 ft 541 kts 93°
2026-04-29 08:52 23.84875 64.64267 36743 ft 542 kts 93°
2026-04-29 08:53 23.84216 64.72455 36743 ft 541 kts 93°
2026-04-29 08:53 23.83553 64.80647 36744 ft 541 kts 93°
2026-04-29 08:54 23.83362 64.88845 36747 ft 540 kts 88°
2026-04-29 08:54 23.83393 64.97045 36747 ft 540 kts 87°
2026-04-29 08:55 23.83460 65.05248 36750 ft 541 kts 87°
2026-04-29 08:55 23.83516 65.13461 36744 ft 541 kts 87°
2026-04-29 08:56 23.83558 65.21673 36740 ft 541 kts 87°
2026-04-29 08:56 23.83592 65.29869 36751 ft 538 kts 87°
2026-04-29 08:57 23.83621 65.37990 36747 ft 539 kts 87°
2026-04-29 08:57 23.83648 65.46189 36747 ft 540 kts 87°
2026-04-29 08:58 23.83670 65.54387 36744 ft 540 kts 87°
2026-04-29 08:58 23.83687 65.62582 36745 ft 540 kts 87°
2026-04-29 08:59 23.83701 65.70792 36739 ft 541 kts 87°
2026-04-29 08:59 23.83710 65.79005 36746 ft 541 kts 87°
2026-04-29 09:00 23.83714 65.87228 36745 ft 541 kts 87°
2026-04-29 09:00 23.83714 65.95452 36747 ft 541 kts 87°
2026-04-29 09:01 23.83710 66.03681 36742 ft 542 kts 87°
2026-04-29 09:01 23.83701 66.11912 36744 ft 542 kts 87°
2026-04-29 09:02 23.83688 66.20148 36744 ft 542 kts 87°
2026-04-29 09:02 23.83671 66.28381 36746 ft 542 kts 87°
2026-04-29 09:03 23.83649 66.36620 36743 ft 543 kts 87°
2026-04-29 09:03 23.83623 66.44873 36743 ft 543 kts 87°
2026-04-29 09:04 23.83593 66.53122 36743 ft 543 kts 87°
2026-04-29 09:04 23.83558 66.61369 36742 ft 543 kts 87°
2026-04-29 09:05 23.83518 66.69628 36746 ft 544 kts 87°
2026-04-29 09:05 23.83475 66.77892 36740 ft 544 kts 87°
2026-04-29 09:06 23.83435 66.84752 36737 ft 544 kts 87°
2026-04-29 09:06 23.83374 66.94356 36740 ft 544 kts 87°
2026-04-29 09:07 23.83655 67.01235 36744 ft 539 kts 78°
2026-04-29 09:07 23.85036 67.10586 36739 ft 536 kts 76°
2026-04-29 09:08 23.86385 67.18585 36740 ft 535 kts 76°
2026-04-29 09:08 23.87519 67.25283 36742 ft 535 kts 76°
2026-04-29 09:09 23.88853 67.33287 36744 ft 536 kts 76°
2026-04-29 09:09 23.90172 67.41309 36740 ft 536 kts 76°
2026-04-29 09:10 23.91475 67.49276 36741 ft 537 kts 76°
2026-04-29 09:10 23.92794 67.57368 36726 ft 538 kts 76°
2026-04-29 09:11 23.94103 67.65426 36729 ft 538 kts 76°
2026-04-29 09:11 23.95408 67.73486 36731 ft 538 kts 76°
2026-04-29 09:12 23.96709 67.81543 36728 ft 538 kts 76°
2026-04-29 09:12 23.97997 67.89553 36729 ft 538 kts 76°
2026-04-29 09:13 23.99290 67.97614 36713 ft 538 kts 76°
2026-04-29 09:13 24.00578 68.05679 36713 ft 538 kts 76°
2026-04-29 09:14 24.01864 68.13752 36712 ft 539 kts 76°
2026-04-29 09:14 24.03144 68.21820 36714 ft 539 kts 76°
2026-04-29 09:15 24.04421 68.29898 36711 ft 539 kts 76°
2026-04-29 09:15 24.05695 68.37983 36713 ft 539 kts 76°
2026-04-29 09:16 24.06965 68.46071 36712 ft 539 kts 76°
2026-04-29 09:16 24.08230 68.54159 36710 ft 539 kts 76°
2026-04-29 09:17 24.09491 68.62250 36700 ft 540 kts 76°
2026-04-29 09:17 24.10749 68.70350 36703 ft 540 kts 76°
2026-04-29 09:18 24.11621 68.78532 36706 ft 545 kts 85°
2026-04-29 09:18 24.11650 68.86836 36690 ft 546 kts 87°
2026-04-29 09:19 24.11512 68.95139 36691 ft 545 kts 88°
2026-04-29 09:19 24.11357 69.03420 36692 ft 544 kts 88°
2026-04-29 09:20 24.11218 69.11699 36692 ft 544 kts 87°
2026-04-29 09:20 24.11087 69.19974 36704 ft 544 kts 87°
2026-04-29 09:21 24.10953 69.28253 36684 ft 544 kts 87°
2026-04-29 09:21 24.10814 69.36540 36682 ft 544 kts 87°
2026-04-29 09:22 24.10670 69.44820 36683 ft 544 kts 88°
2026-04-29 09:22 24.10521 69.53098 36691 ft 544 kts 88°
2026-04-29 09:23 24.10367 69.61385 36687 ft 544 kts 87°
2026-04-29 09:23 24.10209 69.69663 36682 ft 544 kts 87°
2026-04-29 09:24 24.10047 69.77947 36681 ft 544 kts 87°
2026-04-29 09:24 24.09881 69.86230 36680 ft 544 kts 88°
2026-04-29 09:25 24.09711 69.94461 36674 ft 545 kts 87°
2026-04-29 09:25 24.09536 70.02749 36675 ft 545 kts 87°
2026-04-29 09:26 24.09356 70.11042 36674 ft 545 kts 87°
2026-04-29 09:26 24.09171 70.19329 36675 ft 545 kts 87°
2026-04-29 09:27 24.08982 70.27619 36676 ft 545 kts 87°
2026-04-29 09:27 24.08788 70.35912 36675 ft 545 kts 87°
2026-04-29 09:28 24.08590 70.44203 36676 ft 545 kts 87°
2026-04-29 09:28 24.08388 70.52491 36675 ft 545 kts 87°
2026-04-29 09:29 24.08181 70.60782 36675 ft 545 kts 87°
2026-04-29 09:29 24.07862 70.73226 36672 ft 545 kts 87°
2026-04-29 09:30 24.07644 70.81529 36672 ft 546 kts 87°
2026-04-29 09:30 24.07421 70.89820 36677 ft 546 kts 87°
2026-04-29 09:31 24.07193 70.98123 36668 ft 546 kts 87°
2026-04-29 09:31 24.06966 71.06429 36670 ft 546 kts 87°
2026-04-29 09:32 24.06730 71.14737 36672 ft 546 kts 87°
2026-04-29 09:32 24.06489 71.23043 36669 ft 546 kts 88°
2026-04-29 09:33 24.06245 71.31347 36673 ft 546 kts 88°
2026-04-29 09:33 24.05997 71.39655 36673 ft 546 kts 88°
2026-04-29 09:34 24.05744 71.47963 36672 ft 546 kts 88°
2026-04-29 09:34 24.05487 71.56266 36683 ft 546 kts 88°
2026-04-29 09:35 24.05225 71.64577 36678 ft 547 kts 88°
2026-04-29 09:35 24.04959 71.72891 36679 ft 547 kts 88°
2026-04-29 09:36 24.04688 71.81208 36677 ft 547 kts 88°
2026-04-29 09:36 24.04412 71.89527 36677 ft 547 kts 88°
2026-04-29 09:37 24.04132 71.97846 36678 ft 547 kts 88°
2026-04-29 09:37 24.03848 72.06168 36683 ft 548 kts 88°
2026-04-29 09:38 24.03559 72.14494 36691 ft 548 kts 88°
2026-04-29 09:38 24.03265 72.22824 36691 ft 548 kts 88°
2026-04-29 09:39 24.02969 72.31088 36700 ft 548 kts 88°
2026-04-29 09:39 24.02666 72.39423 36707 ft 548 kts 88°
2026-04-29 09:40 24.02359 72.47747 36706 ft 548 kts 88°
2026-04-29 09:40 24.02047 72.56077 36714 ft 548 kts 88°
2026-04-29 09:41 24.01731 72.64401 36713 ft 548 kts 88°
2026-04-29 09:41 24.01540 72.72715 36714 ft 545 kts 85°
2026-04-29 09:42 24.01701 72.80984 36714 ft 544 kts 83°
2026-04-29 09:42 24.01892 72.89252 36724 ft 544 kts 84°
2026-04-29 09:43 24.02022 72.97526 36733 ft 544 kts 84°
2026-04-29 09:43 24.02115 73.05805 36730 ft 544 kts 84°
2026-04-29 09:44 24.02196 73.14084 36738 ft 544 kts 84°
2026-04-29 09:44 24.02275 73.22354 36738 ft 544 kts 84°
2026-04-29 09:45 24.02352 73.30636 36754 ft 544 kts 84°
2026-04-29 09:45 24.02426 73.38917 36752 ft 545 kts 84°
2026-04-29 09:46 24.02494 73.47207 36749 ft 545 kts 84°
2026-04-29 09:46 24.02556 73.55441 36753 ft 545 kts 84°
2026-04-29 09:47 24.02615 73.63728 36752 ft 545 kts 84°
2026-04-29 09:47 24.02670 73.72017 36746 ft 545 kts 84°
2026-04-29 09:48 24.02725 73.80311 36749 ft 545 kts 84°
2026-04-29 09:48 24.02772 73.88604 36742 ft 545 kts 84°
2026-04-29 09:49 24.02814 73.96909 36743 ft 545 kts 84°
2026-04-29 09:49 24.02852 74.05199 36745 ft 545 kts 84°
2026-04-29 09:50 24.02912 74.13487 36743 ft 544 kts 84°
2026-04-29 09:50 24.03042 74.21756 36757 ft 544 kts 83°
2026-04-29 09:51 24.03175 74.30021 36749 ft 544 kts 84°
2026-04-29 09:51 24.03291 74.38298 36776 ft 544 kts 84°
2026-04-29 09:52 24.03399 74.46574 36764 ft 544 kts 84°
2026-04-29 09:52 24.03502 74.54840 36775 ft 544 kts 84°
2026-04-29 09:53 24.03601 74.63111 36771 ft 544 kts 84°
2026-04-29 09:53 24.03674 74.69985 36783 ft 544 kts 85°
2026-04-29 09:54 24.02611 74.78252 36784 ft 555 kts 100°
2026-04-29 09:54 24.00482 74.86379 36783 ft 557 kts 103°
2026-04-29 09:55 23.98152 74.94465 36785 ft 558 kts 104°
2026-04-29 09:55 23.95817 75.02553 36769 ft 558 kts 104°
2026-04-29 09:56 23.93516 75.10637 36785 ft 557 kts 103°
2026-04-29 09:56 23.91226 75.18726 36784 ft 557 kts 103°
2026-04-29 09:57 23.88933 75.26818 36785 ft 557 kts 103°
2026-04-29 09:57 23.86637 75.34897 36784 ft 557 kts 103°
2026-04-29 09:58 23.84334 75.42978 36789 ft 557 kts 103°
2026-04-29 09:58 23.82025 75.51059 36776 ft 556 kts 104°
2026-04-29 09:59 23.79718 75.59120 36776 ft 556 kts 104°
2026-04-29 09:59 23.77421 75.67127 36771 ft 556 kts 104°
2026-04-29 10:00 23.75106 75.75181 36775 ft 556 kts 104°
2026-04-29 10:00 23.72786 75.83235 36766 ft 556 kts 104°
2026-04-29 10:01 23.70460 75.91289 36771 ft 555 kts 104°
2026-04-29 10:01 23.68136 75.99321 36767 ft 555 kts 104°
2026-04-29 10:02 23.65802 76.07351 36760 ft 555 kts 104°
2026-04-29 10:02 23.63453 76.15381 36758 ft 555 kts 104°
2026-04-29 10:03 23.61106 76.23392 36767 ft 554 kts 104°
2026-04-29 10:03 23.58758 76.31395 36753 ft 554 kts 104°
2026-04-29 10:04 23.56405 76.39400 36753 ft 554 kts 104°
2026-04-29 10:04 23.54048 76.47401 36751 ft 554 kts 104°
2026-04-29 10:05 23.51688 76.55397 36753 ft 554 kts 104°
2026-04-29 10:05 23.49322 76.63397 36753 ft 555 kts 104°
2026-04-29 10:06 23.46953 76.71388 36755 ft 553 kts 104°
2026-04-29 10:06 23.44591 76.79336 36738 ft 551 kts 104°
2026-04-29 10:07 23.42225 76.87284 36767 ft 551 kts 104°
2026-04-29 10:07 23.39858 76.95223 36750 ft 551 kts 104°
2026-04-29 10:08 23.37485 77.03164 36749 ft 551 kts 104°
2026-04-29 10:08 23.35110 77.11096 36748 ft 551 kts 104°
2026-04-29 10:09 23.32729 77.19029 36743 ft 551 kts 104°
2026-04-29 10:09 23.30360 77.26909 36753 ft 551 kts 105°
2026-04-29 10:10 23.28437 77.34936 36749 ft 545 kts 92°
2026-04-29 10:10 23.27862 77.43118 36747 ft 542 kts 88°
2026-04-29 10:11 23.27546 77.51303 36741 ft 541 kts 87°
2026-04-29 10:11 23.27252 77.59491 36750 ft 541 kts 88°
2026-04-29 10:12 23.26926 77.67659 36733 ft 540 kts 88°
2026-04-29 10:12 23.26580 77.75825 36711 ft 540 kts 88°
2026-04-29 10:13 23.26225 77.83983 36726 ft 540 kts 88°
2026-04-29 10:13 23.25868 77.92131 36724 ft 539 kts 88°
2026-04-29 10:14 23.25508 78.00276 36723 ft 539 kts 88°
2026-04-29 10:14 23.25144 78.08426 36719 ft 539 kts 88°
2026-04-29 10:15 23.24774 78.16571 36719 ft 539 kts 88°
2026-04-29 10:15 23.24401 78.24719 36723 ft 539 kts 88°
2026-04-29 10:16 23.24088 78.31487 36717 ft 539 kts 88°
2026-04-29 10:16 23.23646 78.40949 36716 ft 539 kts 88°
2026-04-29 10:17 23.23261 78.49091 36715 ft 539 kts 88°
2026-04-29 10:17 23.22871 78.57241 36719 ft 539 kts 88°
2026-04-29 10:18 23.22478 78.65381 36714 ft 539 kts 88°
2026-04-29 10:18 23.22079 78.73527 36718 ft 540 kts 89°
2026-04-29 10:19 23.21829 78.81679 36722 ft 539 kts 86°
2026-04-29 10:19 23.21770 78.89831 36722 ft 539 kts 85°
2026-04-29 10:20 23.21699 78.97988 36722 ft 539 kts 86°
2026-04-29 10:20 23.21586 79.06140 36736 ft 539 kts 86°
2026-04-29 10:21 23.21455 79.14287 36718 ft 539 kts 86°
2026-04-29 10:21 23.21317 79.22442 36719 ft 539 kts 86°
2026-04-29 10:22 23.21176 79.30590 36719 ft 539 kts 86°
2026-04-29 10:22 23.21033 79.38701 36719 ft 539 kts 86°
2026-04-29 10:23 23.20885 79.46854 36718 ft 538 kts 87°
2026-04-29 10:23 23.20733 79.54992 36717 ft 537 kts 87°
2026-04-29 10:24 23.20520 79.63129 36716 ft 538 kts 88°
2026-04-29 10:24 23.20153 79.71224 36714 ft 538 kts 89°
2026-04-29 10:25 23.19767 79.79367 36716 ft 538 kts 89°
2026-04-29 10:25 23.19400 79.87506 36709 ft 537 kts 89°
2026-04-29 10:26 23.19045 79.95612 36716 ft 537 kts 89°
2026-04-29 10:26 23.18692 80.03674 36722 ft 537 kts 89°
2026-04-29 10:27 23.18109 80.15850 36718 ft 537 kts 89°
2026-04-29 10:28 23.17679 80.23930 36714 ft 536 kts 89°
2026-04-29 10:28 23.17248 80.32026 36714 ft 535 kts 89°
2026-04-29 10:29 23.16821 80.40111 36714 ft 535 kts 89°
2026-04-29 10:29 23.16392 80.48205 36726 ft 535 kts 89°
2026-04-29 10:30 23.15960 80.56239 36720 ft 535 kts 89°
2026-04-29 10:30 23.15522 80.64296 36722 ft 533 kts 89°
2026-04-29 10:31 23.15082 80.72342 36726 ft 534 kts 89°
2026-04-29 10:31 23.14644 80.80376 36727 ft 535 kts 89°
2026-04-29 10:32 23.14206 80.88479 36719 ft 536 kts 89°
2026-04-29 10:32 23.13765 80.96552 36712 ft 535 kts 89°
2026-04-29 10:33 23.13322 81.04587 36714 ft 535 kts 89°
2026-04-29 10:33 23.12871 81.12663 36708 ft 535 kts 89°
2026-04-29 10:34 23.12415 81.20743 36708 ft 535 kts 89°
2026-04-29 10:34 23.11960 81.28764 36720 ft 535 kts 89°
2026-04-29 10:35 23.11500 81.36832 36707 ft 534 kts 90°
2026-04-29 10:35 23.11036 81.44896 36706 ft 534 kts 90°
2026-04-29 10:36 23.10571 81.52901 36695 ft 534 kts 90°
2026-04-29 10:36 23.10098 81.60963 36696 ft 533 kts 90°
2026-04-29 10:37 23.09623 81.68999 36686 ft 533 kts 90°
2026-04-29 10:37 23.09142 81.77045 36686 ft 534 kts 90°
2026-04-29 10:38 23.08657 81.85076 36677 ft 534 kts 90°
2026-04-29 10:38 23.08169 81.93115 36677 ft 533 kts 90°
2026-04-29 10:39 23.07676 82.01152 36669 ft 533 kts 90°
2026-04-29 10:39 23.07263 82.07855 36670 ft 533 kts 90°
2026-04-29 10:40 23.06761 82.15913 36664 ft 533 kts 90°
2026-04-29 10:40 23.06343 82.23914 36664 ft 533 kts 89°
2026-04-29 10:41 23.06026 82.31949 36664 ft 532 kts 89°
2026-04-29 10:41 23.05702 82.39989 36667 ft 533 kts 89°
2026-04-29 10:42 23.05354 82.47999 36657 ft 526 kts 90°
2026-04-29 10:42 23.05000 82.55852 36656 ft 523 kts 90°
2026-04-29 10:43 23.04642 82.63746 36672 ft 523 kts 90°
2026-04-29 10:43 23.04281 82.71609 36669 ft 523 kts 90°
2026-04-29 10:44 23.03917 82.79504 36666 ft 523 kts 90°
2026-04-29 10:44 23.03548 82.87398 36675 ft 523 kts 90°
2026-04-29 10:45 23.03174 82.95284 36674 ft 523 kts 90°
2026-04-29 10:45 23.02799 83.03127 36683 ft 523 kts 90°
2026-04-29 10:46 23.02417 83.11027 36683 ft 523 kts 90°
2026-04-29 10:46 23.02032 83.18922 36696 ft 523 kts 90°
2026-04-29 10:47 23.01645 83.26767 36694 ft 522 kts 90°
2026-04-29 10:47 23.01253 83.34647 36711 ft 522 kts 90°
2026-04-29 10:48 23.00856 83.42522 36711 ft 522 kts 90°
2026-04-29 10:48 23.00457 83.50386 36719 ft 522 kts 90°
2026-04-29 10:49 23.00056 83.58213 36723 ft 522 kts 91°
2026-04-29 10:49 22.99648 83.66114 36732 ft 524 kts 91°
2026-04-29 10:50 22.99234 83.74011 36726 ft 523 kts 91°
2026-04-29 10:50 22.98818 83.81902 36738 ft 523 kts 91°
2026-04-29 10:51 22.98401 83.89746 36742 ft 525 kts 91°
2026-04-29 10:51 22.97976 83.97689 36738 ft 528 kts 92°
2026-04-29 10:52 22.97541 84.05675 36751 ft 529 kts 92°
2026-04-29 10:52 22.97103 84.13656 36745 ft 529 kts 92°
2026-04-29 10:53 22.96577 84.21585 36743 ft 529 kts 93°
2026-04-29 10:53 22.95969 84.29570 36740 ft 530 kts 94°
2026-04-29 10:54 22.95370 84.37540 36751 ft 528 kts 94°
2026-04-29 10:54 22.94783 84.45434 36755 ft 527 kts 94°
2026-04-29 10:55 22.94196 84.53378 36749 ft 527 kts 94°
2026-04-29 10:55 22.93608 84.61309 36759 ft 527 kts 94°
2026-04-29 10:56 22.93020 84.69191 36760 ft 527 kts 95°
2026-04-29 10:56 22.92422 84.77132 36771 ft 529 kts 95°
2026-04-29 10:57 22.91817 84.85097 36766 ft 529 kts 95°
2026-04-29 10:57 22.91209 84.93059 36766 ft 530 kts 95°
2026-04-29 10:58 22.90600 85.00982 36774 ft 529 kts 95°
2026-04-29 10:58 22.89985 85.08954 36757 ft 529 kts 95°
2026-04-29 10:59 22.89368 85.16909 36777 ft 528 kts 95°
2026-04-29 10:59 22.88754 85.24869 36770 ft 528 kts 95°
2026-04-29 11:00 22.88141 85.32764 36791 ft 529 kts 95°
2026-04-29 11:00 22.87520 85.40714 36793 ft 529 kts 95°
2026-04-29 11:01 22.86900 85.48641 36792 ft 527 kts 96°
2026-04-29 11:01 22.86273 85.56558 36793 ft 525 kts 96°
2026-04-29 11:02 22.85647 85.64402 36785 ft 525 kts 96°
2026-04-29 11:02 22.85011 85.72316 36786 ft 525 kts 96°
2026-04-29 11:03 22.84377 85.80175 36765 ft 525 kts 96°
2026-04-29 11:03 22.83737 85.88063 36726 ft 525 kts 96°
2026-04-29 11:04 22.83091 85.95974 36688 ft 525 kts 96°
2026-04-29 11:04 22.82443 86.03872 36652 ft 525 kts 96°
2026-04-29 11:05 22.81794 86.11718 36641 ft 525 kts 96°
2026-04-29 11:05 22.81148 86.19597 36622 ft 525 kts 96°
2026-04-29 11:06 22.80700 86.27447 36759 ft 520 kts 95°
2026-04-29 11:06 22.80330 86.35270 36751 ft 518 kts 95°
2026-04-29 11:07 22.79933 86.43067 36753 ft 518 kts 95°
2026-04-29 11:07 22.79509 86.50869 36740 ft 518 kts 95°
2026-04-29 11:08 22.79074 86.58674 36728 ft 518 kts 95°
2026-04-29 11:08 22.78635 86.66462 36727 ft 522 kts 95°
2026-04-29 11:09 22.78190 86.74319 36727 ft 522 kts 95°
2026-04-29 11:09 22.77742 86.82173 36711 ft 522 kts 95°
2026-04-29 11:10 22.77291 86.90023 36712 ft 522 kts 95°
2026-04-29 11:10 22.76835 86.97881 36692 ft 521 kts 96°
2026-04-29 11:11 22.76382 87.05644 36695 ft 514 kts 96°
2026-04-29 11:11 22.75925 87.13370 36681 ft 513 kts 96°
2026-04-29 11:12 22.75464 87.21090 36681 ft 513 kts 96°
2026-04-29 11:12 22.75001 87.28817 36683 ft 513 kts 96°
2026-04-29 11:13 22.74538 87.36494 36683 ft 513 kts 96°
2026-04-29 11:13 22.74068 87.44209 36694 ft 512 kts 96°
2026-04-29 11:14 22.73594 87.51911 36694 ft 512 kts 96°
2026-04-29 11:14 22.73117 87.59607 36708 ft 512 kts 96°
2026-04-29 11:15 22.72637 87.67307 36707 ft 513 kts 96°
2026-04-29 11:15 22.72150 87.75021 36730 ft 515 kts 95°
2026-04-29 11:16 22.71822 87.80176 36725 ft 522 kts 95°